Location: Haliburton Scout Reserve
(45.0900°N, 78.3200°W)
Time: 19:23:46
(UTC-04:00)

STRAND 1 - Pass Details

Date: 31 March 2023
Orbit: 767 x 779 km, 98.4° (Epoch: 06 June)

Event Time Altitude Azimuth Distance (km) Brightness Sun altitude
Rises 21:49:58 0° 357° (N) 3,251 ? -22.4°
Reaches altitude 10° 21:53:26 10° 332° (NNW) 2,317 ? -22.9°
Maximum altitude 21:55:52 14° 303° (WNW) 2,069 ? -23.2°
Drops below altitude 10° 21:58:18 10° 274° (W) 2,310 ? -23.6°
Sets 22:01:45 0° 249° (WSW) 3,231 ? -24.1°
